Waarnemingen

Advertentie
Mijn weer
AWG, Nederland (6208): temperatuur & dauwpunt: 14.08.2017 00:00:00 - 20.08.2017 00:00:00 (CEST)AWG, Nederland (6208): windsnelheid & windstoten: 14.08.2017 00:00:00 - 20.08.2017 00:00:00 (CEST)AWG, Nederland (6208): windrichting: 14.08.2017 00:00:00 - 20.08.2017 00:00:00 (CEST)AWG, Nederland (6208): luchtdruk: 14.08.2017 00:00:00 - 20.08.2017 00:00:00 (CEST)AWG, Nederland (6208): zicht: 14.08.2017 00:00:00 - 20.08.2017 00:00:00 (CEST)
Datum & Tijd tt [°C] td [°C] ff [km/u] ff [kn] fx [km/u] fx [kn] dd ppp [hPa] vv [km]
20.08.2017 00:00:00 16,0 12,0 28 15 - - WZW 1015,8 10
19.08.2017 23:00:00 16,2 11,3 28 15 32 18 WZW 1015,6 10
19.08.2017 22:00:00 16,2 11,4 34 18 40 21 W 1015,4 10
19.08.2017 21:00:00 15,2 10,5 37 20 61 33 WZW 1014,9 10
19.08.2017 20:00:00 16,4 12,0 31 17 43 23 WNW 1015,0 10
19.08.2017 19:00:00 16,5 10,8 39 21 40 21 W 1014,7 10
19.08.2017 18:00:00 17,0 10,0 37 20 40 21 W 1014,9 10
19.08.2017 17:00:00 16,8 10,8 34 18 43 23 W 1014,4 10
19.08.2017 16:00:00 17,0 10,4 37 20 40 21 W 1014,0 10
19.08.2017 15:00:00 16,6 10,8 41 22 43 23 W 1013,3 10
19.08.2017 14:00:00 16,2 11,6 35 19 40 21 WZW 1012,9 10
19.08.2017 13:00:00 16,6 10,3 35 19 36 19 WZW 1012,4 10
19.08.2017 12:00:00 16,5 10,7 37 20 36 19 WZW 1012,0 10
19.08.2017 11:00:00 16,7 10,4 28 15 32 18 WZW 1011,3 10
19.08.2017 10:00:00 15,2 12,1 29 16 32 18 ZZW 1010,8 10
19.08.2017 09:00:00 14,0 12,0 29 16 40 21 - 1010,4 10
19.08.2017 08:00:00 13,7 11,7 34 18 43 23 ZZW 1010,3 4,8
19.08.2017 07:00:00 13,1 11,3 34 18 43 23 ZZW 1010,0 3,7
19.08.2017 06:00:00 14,1 11,7 39 21 40 21 ZZW 1009,2 10
19.08.2017 05:00:00 13,6 10,9 34 18 40 21 - 1009,0 10
19.08.2017 04:00:00 15,2 11,5 34 18 36 19 ZW 1009,3 10
19.08.2017 03:00:00 15,0 10,6 34 18 40 21 WZW 1009,5 10
19.08.2017 02:00:00 15,0 11,8 22 12 29 16 ZZW 1009,7 10
19.08.2017 01:00:00 15,2 12,2 16 9 25 14 ZZW 1009,7 10
19.08.2017 00:00:00 15,5 11,6 13 7 29 16 WZW 1009,5 10
18.08.2017 23:00:00 15,7 12,9 22 12 43 23 W 1009,6 10
18.08.2017 22:00:00 17,0 13,6 13 7 36 19 W 1009,9 10
18.08.2017 21:00:00 17,3 12,7 15 8 14 8 W 1009,3 10
18.08.2017 20:00:00 17,2 12,7 21 11 40 21 WNW 1009,1 10
18.08.2017 19:00:00 17,1 11,8 26 14 40 21 WZW 1008,5 10
18.08.2017 18:00:00 18,5 14,4 24 13 29 16 WZW 1008,9 10
18.08.2017 17:00:00 18,3 13,6 28 15 29 16 W 1008,6 10
18.08.2017 16:00:00 18,5 15,4 29 16 36 19 WZW 1008,7 10
18.08.2017 15:00:00 18,3 14,5 37 20 50 27 ZZW 1008,8 10
18.08.2017 14:00:00 18,6 16,0 31 17 36 19 - 1009,1 10
18.08.2017 13:00:00 19,0 15,4 29 16 32 18 ZZW 1009,2 10
18.08.2017 12:00:00 19,1 15,1 26 14 29 16 ZZW 1009,7 10
18.08.2017 11:00:00 18,6 15,0 28 15 40 21 ZZW 1009,8 10
18.08.2017 10:00:00 18,0 15,8 29 16 40 21 ZZW 1010,0 10
18.08.2017 09:00:00 17,5 15,8 31 17 40 21 - 1009,7 10
18.08.2017 08:00:00 17,1 16,0 37 20 40 21 ZZW 1009,5 7
18.08.2017 07:00:00 17,6 16,3 29 16 40 21 - 1010,0 7
18.08.2017 06:00:00 17,4 16,3 37 20 40 21 ZZW 1010,0 7
18.08.2017 05:00:00 17,1 16,0 37 20 40 21 ZZW 1010,2 7
18.08.2017 04:00:00 16,8 15,8 29 16 32 18 ZZW 1010,3 8
18.08.2017 03:00:00 17,1 15,7 34 18 36 19 ZZW 1010,7 10
18.08.2017 02:00:00 17,1 15,6 34 18 36 19 ZZW 1010,9 10
18.08.2017 01:00:00 17,8 16,2 29 16 36 19 - 1011,3 10
18.08.2017 00:00:00 18,3 16,5 35 19 40 21 - 1011,1 10
17.08.2017 23:00:00 18,7 16,7 31 17 40 21 ZZW 1011,3 10
17.08.2017 22:00:00 19,3 17,3 26 14 32 18 ZZW 1011,7 10
17.08.2017 21:00:00 19,4 17,3 29 16 43 23 ZZW 1011,4 10
17.08.2017 20:00:00 19,1 17,6 41 22 47 25 ZZW 1011,2 9
17.08.2017 19:00:00 18,6 17,2 42 23 47 25 ZZW 1011,1 5
17.08.2017 18:00:00 18,8 16,7 35 19 40 21 - 1011,5 7
17.08.2017 17:00:00 18,9 16,0 31 17 47 25 ZZW 1012,0 10
17.08.2017 16:00:00 18,6 15,9 37 20 43 23 - 1011,4 10
17.08.2017 15:00:00 18,3 16,0 37 20 47 25 ZZW 1011,6 10
17.08.2017 14:00:00 18,2 16,0 29 16 50 27 ZZW 1011,9 10
17.08.2017 13:00:00 18,5 15,6 29 16 36 19 ZZW 1012,1 10
17.08.2017 12:00:00 18,0 15,8 34 18 43 23 ZZW 1012,3 5
17.08.2017 11:00:00 18,5 14,6 39 21 43 23 Z 1012,7 8
17.08.2017 10:00:00 18,4 14,3 35 19 36 19 Z 1012,7 10
17.08.2017 09:00:00 17,7 13,9 35 19 36 19 ZO 1013,2 10
17.08.2017 08:00:00 17,1 14,0 31 17 32 18 Z 1013,9 10
17.08.2017 07:00:00 16,9 14,0 28 15 29 16 ZZO 1014,6 10
17.08.2017 06:00:00 17,1 14,2 29 16 29 16 Z 1014,9 10
17.08.2017 05:00:00 17,1 14,0 31 17 29 16 Z 1015,6 10
17.08.2017 04:00:00 17,4 13,9 29 16 32 18 Z 1016,4 10
17.08.2017 03:00:00 17,7 13,7 28 15 29 16 Z 1016,9 10
17.08.2017 02:00:00 18,0 13,6 28 15 29 16 Z 1017,6 10
17.08.2017 01:00:00 17,9 14,1 18 10 22 12 Z 1018,2 10
17.08.2017 00:00:00 18,3 14,1 26 14 32 18 Z 1018,4 10
16.08.2017 23:00:00 19,3 13,9 34 18 32 18 ZO 1018,6 10
16.08.2017 22:00:00 20,3 13,8 28 15 29 16 ZO 1019,3 10
16.08.2017 21:00:00 21,0 12,1 22 12 22 12 ZO 1019,5 10
16.08.2017 20:00:00 21,4 11,6 22 12 22 12 Z 1019,5 10
16.08.2017 19:00:00 21,8 11,4 22 12 22 12 Z 1019,6 10
16.08.2017 18:00:00 21,3 12,9 11 6 14 8 OZO 1020,1 10
16.08.2017 17:00:00 20,2 14,1 11 6 14 8 O 1020,2 10
16.08.2017 16:00:00 20,3 13,4 8 4 11 6 OZO 1020,6 10
16.08.2017 15:00:00 20,7 12,0 8 4 11 6 OZO 1021,0 10
16.08.2017 14:00:00 20,0 13,0 5 3 11 6 NO 1021,2 10
16.08.2017 13:00:00 20,0 13,3 5 3 7 4 ZW 1021,4 10
16.08.2017 12:00:00 19,4 11,5 5 3 7 4 WZW 1021,5 10
16.08.2017 11:00:00 18,9 12,9 8 4 7 4 WZW 1021,7 10
16.08.2017 10:00:00 18,2 15,0 8 4 7 4 ZW 1021,4 10
16.08.2017 09:00:00 17,9 14,7 8 4 7 4 W 1021,0 10
16.08.2017 08:00:00 18,3 13,8 11 6 14 8 W 1020,3 10
16.08.2017 07:00:00 18,2 14,0 16 9 18 10 WNW 1020,0 10
16.08.2017 06:00:00 18,1 13,6 14 8 18 10 WNW 1019,3 34
16.08.2017 05:00:00 18,0 14,2 16 9 18 10 WNW 1019,0 10
16.08.2017 04:00:00 17,8 13,9 21 11 22 12 WNW 1018,5 10
16.08.2017 03:00:00 17,9 14,1 22 12 29 16 WNW 1018,0 10
16.08.2017 02:00:00 18,0 13,9 22 12 29 16 WNW 1017,8 10
16.08.2017 01:00:00 17,9 14,4 24 13 29 16 WNW 1017,5 10
16.08.2017 00:00:00 18,0 15,6 16 9 18 10 WNW 1017,2 10
15.08.2017 23:00:00 18,1 15,0 13 7 32 18 WNW 1016,8 10
15.08.2017 22:00:00 18,7 16,4 15 8 25 14 W 1016,1 10
15.08.2017 21:00:00 19,1 15,2 9 5 11 6 W 1015,6 10
15.08.2017 20:00:00 18,9 15,4 5 3 11 6 WZW 1014,7 10
15.08.2017 19:00:00 18,8 15,6 11 6 11 6 N 1014,3 10
15.08.2017 18:00:00 18,8 15,9 11 6 14 8 N 1014,6 10
15.08.2017 17:00:00 18,7 16,0 13 7 14 8 N 1014,5 10
15.08.2017 16:00:00 18,8 16,3 15 8 18 10 NW 1014,4 10
15.08.2017 15:00:00 19,1 16,9 18 10 25 14 NW 1014,0 10
15.08.2017 14:00:00 21,4 15,5 13 7 14 8 ZW 1013,7 10
15.08.2017 13:00:00 21,9 14,0 13 7 18 10 ZZW 1013,8 10
15.08.2017 12:00:00 21,8 15,5 16 9 22 12 ZZW 1014,3 10
15.08.2017 11:00:00 21,1 15,6 16 9 22 12 ZW 1014,3 10
15.08.2017 10:00:00 20,1 16,4 16 9 22 12 - 1014,0 10
15.08.2017 09:00:00 18,3 15,8 18 10 25 14 Z 1013,5 10
15.08.2017 08:00:00 17,5 15,3 28 15 29 16 Z 1013,4 9
15.08.2017 07:00:00 17,4 15,0 29 16 29 16 Z 1013,9 10
15.08.2017 06:00:00 17,6 15,1 28 15 29 16 ZO 1014,1 10
15.08.2017 05:00:00 18,2 15,0 28 15 29 16 ZO 1014,4 10
15.08.2017 04:00:00 18,3 14,9 31 17 32 18 OZO 1014,8 10
15.08.2017 03:00:00 18,9 14,9 31 17 32 18 OZO 1015,3 10
15.08.2017 02:00:00 19,2 15,2 28 15 32 18 OZO 1015,8 10
15.08.2017 01:00:00 19,2 15,1 31 17 36 19 O 1016,6 10
15.08.2017 00:00:00 19,7 15,0 29 16 32 18 O 1016,9 10
14.08.2017 23:00:00 20,5 15,0 31 17 29 16 OZO 1017,4 10
14.08.2017 22:00:00 20,9 14,8 26 14 25 14 OZO 1017,9 10
14.08.2017 21:00:00 21,5 15,0 26 14 29 16 OZO 1017,8 10
14.08.2017 20:00:00 22,1 14,5 26 14 25 14 OZO 1017,7 10
14.08.2017 19:00:00 22,2 13,2 28 15 29 16 OZO 1018,0 10
14.08.2017 18:00:00 22,0 13,9 24 13 25 14 O 1018,5 10
14.08.2017 17:00:00 22,4 12,8 22 12 29 16 OZO 1019,1 10
14.08.2017 16:00:00 21,7 11,0 24 13 29 16 O 1019,6 10
14.08.2017 15:00:00 21,0 12,0 28 15 29 16 O 1020,1 10
14.08.2017 14:00:00 20,2 12,1 31 17 32 18 OZO 1020,7 10
14.08.2017 13:00:00 19,4 12,2 28 15 32 18 OZO 1021,2 10
14.08.2017 12:00:00 18,1 11,9 31 17 36 19 OZO 1021,6 10
14.08.2017 11:00:00 17,0 11,2 35 19 36 19 OZO 1021,9 10
14.08.2017 10:00:00 15,6 10,9 29 16 32 18 OZO 1022,1 10
14.08.2017 09:00:00 14,5 9,6 29 16 36 19 OZO 1022,3 10
14.08.2017 08:00:00 14,4 9,9 37 20 40 21 OZO 1022,1 10
14.08.2017 07:00:00 14,6 9,9 34 18 36 19 OZO 1021,9 10
14.08.2017 06:00:00 14,9 10,5 34 18 36 19 OZO 1021,8 10
14.08.2017 05:00:00 15,4 10,6 31 17 36 19 OZO 1021,9 10
14.08.2017 04:00:00 15,7 9,8 34 18 32 18 OZO 1022,1 10
14.08.2017 03:00:00 15,9 9,8 31 17 32 18 OZO 1022,5 10
14.08.2017 02:00:00 16,8 10,4 24 13 25 14 O 1022,9 10
14.08.2017 01:00:00 17,4 9,2 21 11 22 12 O 1023,0 10
14.08.2017 00:00:00 17,4 8,9 18 10 18 10 O 1023,2 10

tt = temperatuur
td = dauwpunt
ff = windsnelheid
fx = windstoten
dd = windrichting
ppp = luchtdruk
vv = zicht

Weerstations in de omgeving